| time (UTC) | temp F | wind direction | speed MPH | gust MPH | rain 1hr in | rain 24hr in | rain mn in | humidity % | barometer mb |
| 20260904114627 | 71 | 356 | 0.0 | 0.0 | 0.00 | 0.00 | 0.00 | 70 | 1014.9 |
| 20260904113947 | 71 | 357 | 0.0 | 0.0 | 0.00 | 0.00 | 0.00 | 72 | 1014.9 |
| 20260904113317 | 70 | 355 | 0.0 | 0.0 | 0.00 | 0.00 | 0.00 | 73 | 1014.8 |
| 20260904112628 | 0 | 356 | 0.0 | 0.0 | 0.00 | 0.00 | 0.00 | ||
| 20260904111724 | 69 | 357 | 0.0 | 0.0 | 0.00 | 0.00 | 0.00 | 76 | 1014.6 |
| 20260904111045 | 68 | 357 | 0.0 | 0.0 | 0.00 | 0.00 | 0.00 | 78 | 1014.7 |
| 20260904110405 | 68 | 356 | 0.0 | 0.0 | 0.00 | 0.00 | 0.00 | 76 | 1014.6 |
| 20260904105726 | 68 | 355 | 0.0 | 0.0 | 0.00 | 0.00 | 0.00 | 76 | 1014.6 |
| 20260904105046 | 68 | 355 | 0.0 | 0.0 | 0.00 | 0.00 | 0.00 | 73 | 1014.6 |
| 20260904104406 | 69 | 359 | 0.0 | 0.0 | 0.00 | 0.00 | 0.00 | 72 | 1014.5 |
| 20260904103726 | 68 | 355 | 0.0 | 0.0 | 0.00 | 0.00 | 0.00 | 73 | 1014.5 |
| 20260904103046 | 0 | 356 | 0.0 | 0.0 | 0.00 | 0.00 | 0.00 | ||
| 20260904102258 | 68 | 356 | 0.0 | 0.0 | 0.00 | 0.00 | 0.00 | 76 | 1014.5 |
| 20260904101618 | 69 | 356 | 0.0 | 0.0 | 0.00 | 0.00 | 0.00 | 76 | 1014.5 |
| 20260904100938 | 69 | 356 | 0.0 | 0.0 | 0.00 | 0.00 | 0.00 | 75 | 1014.6 |
| 20260904100259 | 0 | 358 | 0.0 | 0.0 | 0.00 | 0.00 | 0.00 | ||
| 20260904095358 | 69 | 358 | 0.0 | 0.0 | 0.00 | 0.00 | 0.00 | 75 | 1014.6 |
| 20260904094718 | 0 | 352 | 0.0 | 0.0 | 0.00 | 0.00 | 0.00 | ||
| 20260904093923 | 69 | 354 | 0.0 | 0.0 | 0.00 | 0.00 | 0.00 | 78 | 1014.5 |
| 20260904093243 | 69 | 357 | 0.0 | 0.0 | 0.00 | 0.00 | 0.00 | 79 | 1014.4 |
| 20260904092613 | 0 | 356 | 0.0 | 0.0 | 0.00 | 0.00 | 0.00 | ||
| 20260904091814 | 69 | 357 | 0.0 | 0.0 | 0.00 | 0.00 | 0.00 | 80 | 1014.3 |
| 20260904091134 | 69 | 357 | 0.0 | 0.0 | 0.00 | 0.00 | 0.00 | 79 | 1014.3 |
| 20260904090454 | 69 | 357 | 0.0 | 0.0 | 0.00 | 0.00 | 0.00 | 77 | 1014.3 |
| 20260904085814 | 70 | 357 | 0.0 | 3.0 | 0.00 | 0.00 | 0.00 | 76 | 1014.4 |
| 20260904085134 | 70 | 358 | 0.0 | 4.0 | 0.00 | 0.00 | 0.00 | 74 | 1014.4 |
| 20260904084455 | 70 | 355 | 0.0 | 4.0 | 0.00 | 0.00 | 0.00 | 77 | 1014.5 |
| 20260904083815 | 71 | 356 | 0.0 | 0.0 | 0.00 | 0.00 | 0.00 | 76 | 1014.5 |
| 20260904083027 | 71 | 357 | 0.0 | 0.0 | 0.00 | 0.00 | 0.00 | 73 | 1014.4 |
| 20260904082346 | 71 | 357 | 0.0 | 0.0 | 0.00 | 0.00 | 0.00 | 74 | 1014.2 |
| 20260904081707 | 0 | 357 | 0.0 | 0.0 | 0.00 | 0.00 | 0.00 | ||
| 20260904080917 | 70 | 358 | 0.0 | 0.0 | 0.00 | 0.00 | 0.00 | 74 | 1014.0 |
| 20260904080237 | 70 | 352 | 0.0 | 0.0 | 0.00 | 0.00 | 0.00 | 73 | 1014.0 |
| 20260904075607 | 0 | 357 | 0.0 | 0.0 | 0.00 | 0.00 | 0.00 | ||
| 20260904074740 | 71 | 355 | 0.0 | 0.0 | 0.00 | 0.00 | 0.00 | 72 | 1013.9 |
| 20260904074100 | 70 | 355 | 0.0 | 0.0 | 0.00 | 0.00 | 0.00 | 72 | 1013.7 |
| 20260904073420 | 0 | 356 | 0.0 | 0.0 | 0.00 | 0.00 | 0.00 | ||
| 20260904072631 | 71 | 357 | 0.0 | 0.0 | 0.00 | 0.00 | 0.00 | 75 | 1013.7 |
| 20260904071951 | 70 | 358 | 0.0 | 0.0 | 0.00 | 0.00 | 0.00 | 74 | 1013.7 |
| 20260904071311 | 0 | 357 | 0.0 | 0.0 | 0.00 | 0.00 | 0.00 | ||
| 20260904070520 | 0 | 355 | 0.0 | 0.0 | 0.00 | 0.00 | 0.00 | ||
| 20260904065508 | 71 | 358 | 0.0 | 0.0 | 0.00 | 0.00 | 0.00 | 73 | 1013.8 |
| 20260904064828 | 71 | 357 | 0.0 | 0.0 | 0.00 | 0.00 | 0.00 | 72 | 1013.8 |
| 20260904064148 | 71 | 358 | 0.0 | 0.0 | 0.00 | 0.00 | 0.00 | 73 | 1013.8 |
| 20260904063508 | 71 | 356 | 0.0 | 0.0 | 0.00 | 0.00 | 0.00 | 71 | 1013.8 |
| 20260904062828 | 71 | 357 | 0.0 | 0.0 | 0.00 | 0.00 | 0.00 | 70 | 1013.7 |
| 20260904062147 | 72 | 356 | 0.0 | 0.0 | 0.00 | 0.00 | 0.00 | 69 | 1013.7 |
| 20260904061514 | 0 | 355 | 0.0 | 0.0 | 0.00 | 0.00 | 0.00 | ||
| 20260904060721 | 0 | 359 | 0.0 | 0.0 | 0.00 | 0.00 | 0.00 | ||
| 20260904055925 | 71 | 357 | 0.0 | 0.0 | 0.00 | 0.00 | 0.00 | 75 | 1013.6 |
| 20260904055259 | 71 | 356 | 0.0 | 0.0 | 0.00 | 0.00 | 0.00 | 76 | 1013.6 |
| 20260904054605 | 71 | 355 | 0.0 | 0.0 | 0.00 | 0.00 | 0.00 | 80 | 1013.7 |
| 20260904053925 | 71 | 357 | 0.0 | 0.0 | 0.00 | 0.00 | 0.00 | 81 | 1013.7 |
| 20260904053244 | 70 | 355 | 0.0 | 0.0 | 0.00 | 0.00 | 0.00 | 81 | 1013.7 |
| 20260904052604 | 70 | 357 | 0.0 | 0.0 | 0.00 | 0.00 | 0.00 | 82 | 1013.7 |
| 20260904051924 | 70 | 357 | 0.0 | 0.0 | 0.00 | 0.00 | 0.00 | 83 | 1013.7 |
| 20260904051244 | 0 | 357 | 0.0 | 0.0 | 0.00 | 0.00 | 0.00 | ||
| 20260904050455 | 71 | 358 | 0.0 | 0.0 | 0.00 | 0.00 | 0.00 | 83 | 1013.9 |
| 20260904045442 | 0 | 356 | 0.0 | 0.0 | 0.00 | 0.00 | 0.00 | ||
| 20260904044318 | 72 | 358 | 0.0 | 0.0 | 0.00 | 0.00 | 0.00 | 84 | 1013.9 |
| 20260904043638 | 72 | 358 | 0.0 | 0.0 | 0.00 | 0.00 | 0.00 | 84 | 1013.8 |
| 20260904042958 | 0 | 356 | 0.0 | 0.0 | 0.00 | 0.00 | 0.00 | ||
| 20260904042205 | 73 | 356 | 0.0 | 0.0 | 0.00 | 0.00 | 0.00 | 83 | 1013.8 |
| 20260904041526 | 0 | 356 | 0.0 | 0.0 | 0.00 | 0.00 | 0.00 | ||
| 20260904040624 | 73 | 357 | 0.0 | 0.0 | 0.00 | 0.00 | 0.00 | 84 | 1013.9 |
| 20260904035944 | 73 | 356 | 0.0 | 0.0 | 0.00 | 0.00 | 0.00 | 84 | 1013.9 |
| 20260904035306 | 0 | 355 | 0.0 | 0.0 | 0.00 | 0.00 | 0.00 | ||
| 20260904034136 | 73 | 356 | 0.0 | 0.0 | 0.00 | 0.00 | 0.00 | 84 | 1013.9 |
| 20260904033457 | 73 | 358 | 0.0 | 0.0 | 0.00 | 0.00 | 0.00 | 82 | 1013.8 |
| 20260904032818 | 0 | 356 | 0.0 | 0.0 | 0.00 | 0.00 | 0.00 | ||
| 20260904031658 | 73 | 357 | 0.0 | 8.0 | 0.00 | 0.00 | 0.00 | 81 | 1013.6 |
| 20260904031018 | 73 | 355 | 3.0 | 9.0 | 0.00 | 0.00 | 0.00 | 79 | 1013.6 |
| 20260904030337 | 73 | 357 | 4.0 | 9.0 | 0.00 | 0.00 | 0.00 | 80 | 1013.5 |
| 20260904025659 | 74 | 356 | 0.0 | 10.0 | 0.00 | 0.00 | 0.00 | 79 | 1013.6 |
| 20260904025017 | 73 | 357 | 4.0 | 10.0 | 0.00 | 0.00 | 0.00 | 81 | 1013.6 |
| 20260904024337 | 74 | 356 | 5.0 | 9.0 | 0.00 | 0.00 | 0.00 | 81 | 1013.6 |
| 20260904023658 | 0 | 357 | 0.0 | 14.0 | 0.00 | 0.00 | 0.00 | ||
| 20260904022903 | 73 | 354 | 7.0 | 14.0 | 0.00 | 0.00 | 0.00 | 83 | 1013.6 |
| 20260904022224 | 0 | 356 | 7.0 | 8.0 | 0.00 | 0.00 | 0.00 | ||
| 20260904021516 | 74 | 357 | 5.0 | 11.0 | 0.00 | 0.00 | 0.00 | 84 | 1013.6 |
| 20260904020836 | 74 | 354 | 6.0 | 12.0 | 0.00 | 0.00 | 0.00 | 84 | 1013.7 |
| 20260904020156 | 74 | 354 | 7.0 | 12.0 | 0.00 | 0.00 | 0.00 | 84 | 1013.7 |
| 20260904015532 | 74 | 355 | 7.0 | 14.0 | 0.00 | 0.00 | 0.00 | 82 | 1013.6 |
| 20260904014836 | 74 | 356 | 6.0 | 14.0 | 0.00 | 0.00 | 0.00 | 80 | 1013.6 |
| 20260904014201 | 0 | 355 | 5.0 | 3.0 | 0.00 | 0.00 | 0.00 | ||
| 20260904013406 | 74 | 354 | 7.0 | 16.0 | 0.00 | 0.00 | 0.00 | 84 | 1013.5 |
| 20260904012726 | 74 | 354 | 8.0 | 16.0 | 0.00 | 0.00 | 0.00 | 83 | 1013.1 |
| 20260904012056 | 74 | 352 | 10.0 | 17.0 | 0.00 | 0.00 | 0.00 | 84 | 1013.0 |
| 20260904011407 | 74 | 358 | 10.0 | 18.0 | 0.00 | 0.00 | 0.00 | 86 | 1012.8 |
| 20260904010736 | 74 | 355 | 11.0 | 19.0 | 0.00 | 0.00 | 0.00 | 88 | 1012.8 |
| 20260904010052 | 74 | 355 | 12.0 | 19.0 | 0.00 | 0.00 | 0.00 | 90 | 1012.8 |
| 20260904005407 | 0 | 354 | 10.0 | 8.0 | 0.00 | 0.00 | 0.00 | ||
| 20260904004402 | 75 | 356 | 10.0 | 19.0 | 0.00 | 0.00 | 0.00 | 89 | 1012.4 |
| 20260904003714 | 0 | 353 | 11.0 | 7.0 | 0.00 | 0.00 | 0.00 | ||
| 20260904002911 | 0 | 355 | 9.0 | 8.0 | 0.00 | 0.00 | 0.00 | ||
| 20260904002119 | 75 | 356 | 9.0 | 16.0 | 0.00 | 0.00 | 0.00 | 88 | 1012.2 |
| 20260904001444 | 75 | 352 | 9.0 | 17.0 | 0.00 | 0.00 | 0.00 | 87 | 1012.2 |
| 20260904000759 | 0 | 355 | 11.0 | 10.0 | 0.00 | 0.00 | 0.00 | ||
| 20260903235953 | 75 | 356 | 9.0 | 18.0 | 0.00 | 0.00 | 0.00 | 85 | 1012.4 |
| 20260903235314 | 75 | 356 | 9.0 | 14.0 | 0.00 | 0.00 | 0.00 | 85 | 1012.5 |
| 20260903234633 | 75 | 352 | 8.0 | 12.0 | 0.00 | 0.00 | 0.00 | 86 | 1012.6 |
| 20260903233954 | 0 | 356 | 9.0 | 9.0 | 0.00 | 0.00 | 0.00 | ||
| 20260903233253 | 0 | 356 | 10.0 | 10.0 | 0.00 | 0.00 | 0.00 | ||
| 20260903232504 | 0 | 356 | 10.0 | 11.0 | 0.00 | 0.00 | 0.00 | ||
| 20260903231707 | 0 | 355 | 9.0 | 7.0 | 0.00 | 0.00 | 0.00 | ||
| 20260903230915 | 76 | 354 | 9.0 | 14.0 | 0.00 | 0.00 | 0.00 | 81 | 1012.6 |
| 20260903230234 | 76 | 357 | 8.0 | 12.0 | 0.00 | 0.00 | 0.00 | 82 | 1012.6 |
| 20260903225554 | 76 | 352 | 6.0 | 10.0 | 0.00 | 0.00 | 0.00 | 82 | 1012.7 |
| 20260903224914 | 76 | 354 | 7.0 | 11.0 | 0.00 | 0.00 | 0.00 | 82 | 1012.8 |
| 20260903224244 | 0 | 0 | 6.0 | 6.0 | 0.00 | 0.00 | 0.00 | ||
| 20260903223443 | 76 | 354 | 8.0 | 11.0 | 0.00 | 0.00 | 0.00 | 79 | 1012.9 |
| 20260903222813 | 76 | 355 | 7.0 | 11.0 | 0.00 | 0.00 | 0.00 | 81 | 1013.0 |
| 20260903222123 | 76 | 356 | 0.0 | 0.0 | 0.00 | 0.00 | 0.00 | 81 | 1012.9 |
| 20260903221449 | 76 | 356 | 0.0 | 0.0 | 0.00 | 0.00 | 0.00 | 81 | 1012.9 |
| 20260903220804 | 76 | 358 | 0.0 | 0.0 | 0.00 | 0.00 | 0.00 | 81 | 1012.6 |
| 20260903220124 | 76 | 356 | 0.0 | 0.0 | 0.00 | 0.00 | 0.00 | 79 | 1012.4 |
| 20260903215454 | 76 | 356 | 0.0 | 0.0 | 0.00 | 0.00 | 0.00 | 78 | 1012.4 |
| 20260903214804 | 77 | 359 | 0.0 | 5.0 | 0.00 | 0.00 | 0.00 | 78 | 1012.4 |
| 20260903214124 | 0 | 357 | 0.0 | 5.0 | 0.00 | 0.00 | 0.00 | ||
| 20260903213221 | 77 | 358 | 0.0 | 0.0 | 0.00 | 0.00 | 0.00 | 79 | 1012.0 |
| 20260903212551 | 0 | 356 | 0.0 | 0.0 | 0.00 | 0.00 | 0.00 | ||
| 20260903211751 | 0 | 359 | 0.0 | 4.0 | 0.00 | 0.00 | 0.00 | ||
| 20260903210936 | 77 | 357 | 0.0 | 0.0 | 0.00 | 0.00 | 0.00 | 78 | 1012.3 |
| 20260903210150 | 76 | 357 | 0.0 | 6.0 | 0.00 | 0.00 | 0.00 | 77 | 1012.4 |
| 20260903205504 | 76 | 358 | 0.0 | 0.0 | 0.00 | 0.00 | 0.00 | 77 | 1012.4 |
| 20260903204829 | 76 | 357 | 0.0 | 0.0 | 0.00 | 0.00 | 0.00 | 79 | 1012.3 |
| 20260903204145 | 76 | 355 | 0.0 | 9.0 | 0.00 | 0.00 | 0.00 | 78 | 1012.6 |
| 20260903203505 | 76 | 356 | 5.0 | 9.0 | 0.00 | 0.00 | 0.00 | 79 | 1012.7 |
| 20260903202825 | 76 | 355 | 0.0 | 0.0 | 0.00 | 0.00 | 0.00 | 79 | 1012.8 |
| 20260903201910 | 0 | 357 | 1.0 | 7.0 | 0.00 | 0.00 | 0.00 | ||
| 20260903201158 | 76 | 355 | 2.0 | 10.0 | 0.00 | 0.00 | 0.00 | 80 | 1013.1 |
| 20260903200512 | 76 | 354 | 4.0 | 10.0 | 0.00 | 0.00 | 0.00 | 80 | 1013.3 |
| 20260903195843 | 0 | 357 | 4.0 | 10.0 | 0.00 | 0.00 | 0.00 | ||
| 20260903195126 | 77 | 355 | 6.0 | 10.0 | 0.00 | 0.00 | 0.00 | 78 | 1013.4 |
| 20260903194446 | 0 | 356 | 0.0 | 0.0 | 0.00 | 0.00 | 0.00 | ||
| 20260903193545 | 76 | 357 | 0.0 | 9.0 | 0.00 | 0.00 | 0.00 | 78 | 1013.4 |
| 20260903192522 | 77 | 354 | 0.0 | 9.0 | 0.00 | 0.00 | 0.00 | 77 | 1013.4 |
| 20260903191842 | 76 | 355 | 3.0 | 9.0 | 0.00 | 0.00 | 0.00 | 79 | 1013.7 |
| 20260903191212 | 76 | 355 | 2.0 | 10.0 | 0.00 | 0.00 | 0.00 | 77 | 1013.6 |
| 20260903190522 | 0 | 355 | 2.0 | 10.0 | 0.00 | 0.00 | 0.00 | ||
| 20260903185725 | 77 | 354 | 3.0 | 9.0 | 0.00 | 0.00 | 0.00 | 74 | 1013.7 |
| 20260903185041 | 78 | 356 | 3.0 | 8.0 | 0.00 | 0.00 | 0.00 | 72 | 1013.6 |
| 20260903184403 | 76 | 354 | 3.0 | 8.0 | 0.00 | 0.00 | 0.00 | 75 | 1013.6 |
| 20260903183730 | 77 | 359 | 0.0 | 9.0 | 0.00 | 0.00 | 0.00 | 74 | 1013.6 |
| 20260903183040 | 78 | 354 | 3.0 | 9.0 | 0.00 | 0.00 | 0.00 | 72 | 1013.6 |
| 20260903182401 | 78 | 356 | 3.0 | 9.0 | 0.00 | 0.00 | 0.00 | 72 | 1013.6 |
| 20260903181720 | 0 | 357 | 5.0 | 9.0 | 0.00 | 0.00 | 0.00 | ||
| 20260903180925 | 76 | 357 | 5.0 | 10.0 | 0.00 | 0.00 | 0.00 | 76 | 1013.7 |
| 20260903180255 | 77 | 353 | 1.0 | 10.0 | 0.00 | 0.00 | 0.00 | 76 | 1013.7 |
| 20260903175608 | 76 | 354 | 5.0 | 10.0 | 0.00 | 0.00 | 0.00 | 75 | 1013.8 |
| 20260903174803 | 77 | 354 | 4.0 | 9.0 | 0.00 | 0.00 | 0.00 | 72 | 1013.6 |
| 20260903174123 | 77 | 354 | 1.0 | 9.0 | 0.00 | 0.00 | 0.00 | 74 | 1013.7 |
| 20260903173448 | 0 | 355 | 5.0 | 6.0 | 0.00 | 0.00 | 0.00 | ||
| 20260903172512 | 77 | 355 | 3.0 | 9.0 | 0.00 | 0.00 | 0.00 | 74 | 1013.9 |
| 20260903171842 | 77 | 357 | 3.0 | 9.0 | 0.00 | 0.00 | 0.00 | 75 | 1013.9 |
| 20260903171153 | 0 | 355 | 5.0 | 6.0 | 0.00 | 0.00 | 0.00 | ||
| 20260903170336 | 76 | 354 | 4.0 | 9.0 | 0.00 | 0.00 | 0.00 | 76 | 1013.8 |
| 20260903165657 | 0 | 357 | 4.0 | 10.0 | 0.00 | 0.00 | 0.00 | ||
| 20260903164909 | 77 | 354 | 5.0 | 8.0 | 0.00 | 0.00 | 0.00 | 73 | 1014.0 |
| 20260903164220 | 0 | 355 | 2.0 | 2.0 | 0.00 | 0.00 | 0.00 | ||
| 20260903163414 | 77 | 356 | 4.0 | 10.0 | 0.00 | 0.00 | 0.00 | 75 | 1014.0 |
| 20260903162724 | 77 | 356 | 3.0 | 10.0 | 0.00 | 0.00 | 0.00 | 73 | 1014.0 |
| 20260903162054 | 77 | 353 | 4.0 | 10.0 | 0.00 | 0.00 | 0.00 | 74 | 1014.0 |
| 20260903161404 | 0 | 357 | 4.0 | 2.0 | 0.00 | 0.00 | 0.00 | ||
| 20260903160615 | 78 | 356 | 1.0 | 10.0 | 0.00 | 0.00 | 0.00 | 71 | 1014.0 |
| 20260903155827 | 76 | 356 | 6.0 | 11.0 | 0.00 | 0.00 | 0.00 | 75 | 1014.1 |
| 20260903155147 | 0 | 352 | 6.0 | 6.0 | 0.00 | 0.00 | 0.00 | ||
| 20260903154249 | 75 | 357 | 0.0 | 4.0 | 0.00 | 0.00 | 0.00 | 77 | 1014.1 |
| 20260903153615 | 0 | 359 | 3.0 | 4.0 | 0.00 | 0.00 | 0.00 | ||
| 20260903152813 | 75 | 355 | 4.0 | 9.0 | 0.00 | 0.00 | 0.00 | 77 | 1014.3 |
| 20260903152143 | 75 | 357 | 3.0 | 9.0 | 0.00 | 0.00 | 0.00 | 76 | 1014.2 |
| 20260903151503 | 75 | 354 | 6.0 | 9.0 | 0.00 | 0.00 | 0.00 | 76 | 1014.3 |
| 20260903150813 | 0 | 356 | 5.0 | 7.0 | 0.00 | 0.00 | 0.00 | ||
| 20260903145947 | 74 | 356 | 5.0 | 7.0 | 0.00 | 0.00 | 0.00 | 76 | 1014.1 |
| 20260903145046 | 0 | 355 | 6.0 | 4.0 | 0.00 | 0.00 | 0.00 | ||
| 20260903144253 | 74 | 353 | 6.0 | 10.0 | 0.00 | 0.00 | 0.00 | 76 | 1014.2 |
| 20260903143613 | 75 | 354 | 5.0 | 10.0 | 0.00 | 0.00 | 0.00 | 76 | 1014.1 |
| 20260903142938 | 74 | 357 | 6.0 | 9.0 | 0.00 | 0.00 | 0.00 | 75 | 1014.1 |
| 20260903142258 | 0 | 356 | 5.0 | 8.0 | 0.00 | 0.00 | 0.00 | ||
| 20260903141237 | 75 | 354 | 5.0 | 10.0 | 0.00 | 0.00 | 0.00 | 74 | 1014.1 |
| 20260903140602 | 76 | 355 | 6.0 | 9.0 | 0.00 | 0.00 | 0.00 | 71 | 1014.1 |
| 20260903135918 | 0 | 356 | 2.0 | 5.0 | 0.00 | 0.00 | 0.00 | ||
| 20260903135023 | 75 | 359 | 0.0 | 0.0 | 0.00 | 0.00 | 0.00 | 78 | 1014.1 |
| 20260903134338 | 75 | 357 | 0.0 | 0.0 | 0.00 | 0.00 | 0.00 | 81 | 1014.2 |
| 20260903133658 | 74 | 357 | 0.0 | 0.0 | 0.00 | 0.00 | 0.00 | 84 | 1014.2 |
| 20260903133018 | 73 | 357 | 0.0 | 0.0 | 0.00 | 0.00 | 0.00 | 85 | 1014.3 |
| 20260903132338 | 0 | 355 | 0.0 | 0.0 | 0.00 | 0.00 | 0.00 | ||
| 20260903131545 | 73 | 358 | 0.0 | 0.0 | 0.00 | 0.00 | 0.00 | 84 | 1014.3 |
| 20260903130724 | 73 | 357 | 0.0 | 0.0 | 0.00 | 0.00 | 0.00 | 84 | 1014.3 |
| 20260903130049 | 0 | 351 | 0.0 | 0.0 | 0.00 | 0.00 | 0.00 | ||
| 20260903125337 | 73 | 356 | 0.0 | 0.0 | 0.00 | 0.00 | 0.00 | 84 | 1014.3 |
| 20260903124657 | 73 | 358 | 0.0 | 0.0 | 0.00 | 0.00 | 0.00 | 85 | 1014.4 |
| 20260903124017 | 73 | 356 | 0.0 | 0.0 | 0.00 | 0.00 | 0.00 | 85 | 1014.5 |
| 20260903123338 | 72 | 358 | 0.0 | 0.0 | 0.00 | 0.00 | 0.00 | 85 | 1014.5 |
| 20260903122659 | 72 | 357 | 0.0 | 0.0 | 0.00 | 0.00 | 0.00 | 85 | 1014.6 |
| 20260903122017 | 0 | 357 | 0.0 | 0.0 | 0.00 | 0.00 | 0.00 | ||
| 20260903121040 | 72 | 359 | 0.0 | 0.0 | 0.00 | 0.00 | 0.00 | 85 | 1014.6 |
| 20260903120400 | 72 | 356 | 0.0 | 0.0 | 0.00 | 0.00 | 0.00 | 84 | 1014.6 |
| 20260903115720 | 72 | 357 | 0.0 | 0.0 | 0.00 | 0.00 | 0.00 | 84 | 1014.5 |